Location: Leverkusen
(51.0459°N, 7.0192°E)
Time: 09:57:25
(UTC+01:00)

ISS - Pass Details

Date: 25 January 2019
Orbit: 403 x 411 km, 51.6° (Epoch: 16 February)

Event Time Altitude Azimuth Distance (km) Brightness Sun altitude
Rises 18:27:40 0° 213° (SSW) 2,324 0.8 -12.1°
Reaches altitude 10° 18:30:01 10° 197° (SSW) 1,469 -0.6 -12.4°
Maximum altitude 18:32:38 22° 145° (SE) 957 -2.2 -12.8°
Enters shadow 18:33:51 18° 113° (ESE) 1,092 -2.1 -13.0°
